Погода в Симферополе

Погода в Симферополе : погода сейчас, прогноз погоды и архив. Всё, что Вы хотите узнать о погоде в Симферополе!

Хотите узнать прогноз погоды в Симферополе? Тогда Вам сюда: Погода в Симферополе

Поиск расширенной информации на нашем сайте:

Другие новости

Новости СМИ2

Главная страница сайта

Новости сайта

02.10.2013

Напоминаем, что на нашем новом сайте вы можете получить высокодетализированные прогнозы погоды по пунктам России, СНГ и мира (включающие важные для авиации метеовеличины, такие как направление и скорость ветра, видимость, явления погоды, количество и форма облачности, нижняя и верхняя граница облачности), а также ознакомиться с разнообразными материалами по авиационной метеорологии и подборкой полезных ссылок на эту тему.

Сайт Метеоцентр.Азия посвящён разработке технологий оптимизации авиаметеорологического обслуживания, включая проектирование и перспективное создание нескольких автоматизированных авиаметеорологических систем:
- система выпуска высокодетальных прогностических карт явлений погоды для нижнего воздушного пространства по России и ближнему зарубежью;
- система верификации прогнозов TAF (выпускаемых синоптиками официальных АМСГ РФ и ближнего зарубежья) и AUTOTAF (выпускаемых сайтом Метеоцентр.Азия) - выявление ошибок, онлайн-сопоставление с фактической погодой METAR, автоматическое внесение коррективов в прогнозы при резком отклонении фактической погоды от прогноза, подсчёт оправдываемости прогнозов по элементам и в целом;
- система обработки, анализа и отображения авиаметеорологической информации для применения провайдерами метеорологической информации.


Погода в Симферополе - сегодня

Время (UTC), дата Ветер
(°,м/с) 
Видим.   Явления Облачность Т
(°С)
Тd
(°С)
f(%) Тe
(°С)
Pmin
(гПа)
dP
(гПа)
Po
(мм)
O2
(г/м3)
Тmin Tmax R s Состояние
почвы
21 23.04.17 190 (Ю) 5000 м  дымка  10/10 210 м 
[St]
+5.3 +4.9 97 +4  1012.7  1.6  743  293           
00 24.04.17 190 (Ю) 6000 м  дымка  10/10 1350 м 
[Sc]
+5.6 +5 96 +4  1011.9  -0.8  742  292           
03 24.04.17 290 (З) 5{11}  10 км  слаб. ливневой дождь  10/10 570 м кучево-дожд. 
[Cb calv]
+2.1 +1.4 95 -1  1013.6  1.4  743  297  +2       
06 24.04.17 190 (Ю) 10 км  {ливн. осадки, дождь}  10/6 800 м кучево-дожд., средняя 
[Cb calv|As trans]
+5.1 +3.9 92 +3  1014.8  1.4  744  294  +1.8      влажная 
09 24.04.17 250 (З) 10-13{13}  10 км    6/6 930 м кучево-дожд. 
[Cb calv]
+9.9 +5.5 74 +7  1016  1.5  746  289           
12 24.04.17 250 (З) 11-14{15}  10 км  в посл. час гроза  8/8 840 м кучево-дожд. 
[Cb calv]
+9.5 +4.5 71 +7  1017.5  1.5  747  290           
18 24.04.17 220 (ЮЗ) 4{13}  10 км    3/0 средняя 
[Ac trans]
+4.2 +2.1 86 +2  1022.2  2.4  750  297    +10.8       
21 24.04.17 200 (Ю) 10 км    6/0 средняя 
[Ac trans]
+4.2 +2.6 89 +3  1024.1  1.9  751  298           
00 25.04.17 190 (Ю) 10 км    8/3 600 м средняя 
[Sc|Ac trans]
+3.8 +3.1 95 +2  1024.9  0.8  752  298           
03 25.04.17 200 (Ю) 10 км  в посл. час ливневой дождь  10/4 750 м кучево-дожд., средняя 
[Cb calv|Ac und]
+5.6 +4.6 93 +4  1025.7  0.9  752  296  +2.9    0.0     
06 25.04.17 220 (ЮЗ) 10 км  {ливн. осадки}  5/5 1500 м 
[Sc]
+9.1 +4.7 74 +7  1027.3  1.8  754  293  +2.9    0.0    влажная 
09 25.04.17 230 (ЮЗ) 6{10}  10 км    6/6 1000 м 
[Sc]
+12.1 +1.1 47 +11  1027.9  0.8  754  291           
12 25.04.17 250 (З) 8-10{11}  10 км    4/4 1500 м 
[Sc]
+13 +0.4 42 +12  1027.3  -0.5  754  290           
15 25.04.17 280 (З) 6{11}  10 км    3/0 средняя 
[Ac trans]
+11.6 +1.8 51 +10  1026.5  -0.9  753  291           
18 25.04.17 100 (В) 10 км    ясно 
+7.3 -1.6 53 +7  1026.8  753  296    +13.7       
21 25.04.17 110 (В) 10 км    ясно 
+5.3 -4 51 +4  1025.8  -1.2  752  298           
03 26.04.17 120 (ЮВ) 10 км    ясно 
+3.7 -4.7 54 +2  1025.1  -0.1  752  299  +2.4         
06 26.04.17 100 (В) 10 км    ясно 
+12.7 -6.3 26 +14  1025  0.6  752  290  +2.4        влажная 
09 26.04.17 130 (ЮВ) 10 км    ясно 
+17.3 -5.2 21 +18  1024.1  -0.5  752  285           
12 26.04.17 200 (Ю) 10 км    ясно 
+19.9 -5.1 18 +21  1022.7  -1.2  751  283           
15 26.04.17 280 (З) 10 км    ясно 
+17.5 -1.7 27 +18  1022  -0.8  750  284           
18 26.04.17 тихо ()   10 км    ясно 
+11.7 -1.4 40 +12  1022.8  0.3  751  290    +20.7       
21 26.04.17 350 (С) 10 км    ясно 
+6 -0.7 62 +6  1023.4  0.2  751  296           
00 27.04.17 110 (В) 10 км    ясно 
+4.1 -1.9 65 +4  1022.3  -1.3  750  298           
03 27.04.17 110 (В) 10 км    ясно 
+2.5 -4.5 60 +1  1022.2  -0.2  750  300  +1.4         
Время (UTC), дата Ветер
(°,м/с) 
Видим.   Явления Облачность Т
(°С)
Тd
(°С)
f(%) Тe
(°С)
Pmin
(гПа)
dP
(гПа)
Po
(мм)
O2
(г/м3)
Тmin Tmax R s Состояние
почвы

Для получения пояснительной информации подведите курсор к названию столбца.

ПОГОДА в Симферополе - архив

Всё, что Вы хотите узнать о погоде в Симферополе - удобно и подробно!

Выберите нужную дату (начиная с 1 января 2015* года) и нажмите кнопку "Найти".
Будут отображены архивные сводки погоды по пункту Симферополь, начиная с указанной даты.


Отображать данные в формате CSV (для использования в таблицах Excel)


Внимание! Наш архив погоды предназначен исключительно для личного некоммерческого использования в познавательных целях. Если Вам необходимы официальные справки о состоянии погоды (для производственных, юридических, коммерческих и т.п. целей), обращайтесь в органы Росгидромета.

*Примечание: данная дата относится к архиву по метеостанциям СССР (Россия, СНГ, Балтия).
Архив по метеостанциям Зарубежной Европы и Азии (кроме Китая) хранится 10 дней, по другим регионам земного шара (Китай, Африка, Америка, Австралия, Океания) - 1 день.

Симферополь - район местоположения метеостанции


Название, широта, долгота, высота метеостанции:
Симферополь 44.7°ш. 34.1°д. 181 м над ур. моря [Российская Федерация]

Дополнительная информация

В oтличие oт бoльшинства пoгoдных сайтoв мы публикуем пoдрoбную метеoинфoрмацию в детальнoм прoфессиoнальнoм фoрмате.

Характеристики температуры и влажнoсти вoздуха измеряются на высoте 2 м в тени вдали oт зданий и деревьев.
Скoрoсть ветра измеряется на высoте 10 м (на урoвне рoста челoвека скoрoсть ветра ниже в 1.5-2 раза). Если метеoстанция нахoдится в гoрoде или в лесу, тo скoрoсть ветра занижена на 2-4 м/с пo сравнению с oткрытым местoм. Скoрoсть ветра над акватoриями крупных рек и oзёр, а также на вершинах хoлмoв на 2-5 м/с выше, чем в oбычных услoвиях.
Атмoсфернoе давление в разных тoчках местнoсти мoжет значительнo oтличаться oт давления на метеoстанции, в зависимoсти oт услoвий рельефа (при пoдъёме на 10 м давление пoнижается примернo на 1 мм рт.ст.).